Location: Overspoor
(51.4747°N, 5.6641°E)
Time: 14:43:49
(UTC+02:00)

RS-15 - Pass Details

Date: 01 July 2022
Orbit: 1881 x 2163 km, 64.8° (Epoch: 13 August)

Event Time Altitude Azimuth Distance (km) Brightness Sun altitude
Rises 03:55:08 0° 319° (NW) 5,699 10.7 -9.8°
Reaches altitude 10° 04:00:25 10° 301° (WNW) 4,675 10.0 -9.4°
Maximum altitude 04:07:02 17° 268° (W) 4,090 9.4 -8.8°
Drops below altitude 10° 04:13:34 10° 234° (SW) 4,577 9.4 -8.3°
Enters shadow 04:14:47 - 229° (SW) 4,769 9.4 -8.2°
